Location: Eckley Miners' Village
(40.9930°N, 75.8630°W)
Time: 00:12:46
(UTC-04:00)

Vanguard 1 Rocket - Pass Details

Date: 19 March 2026
Orbit: 654 x 4213 km, 34.3° (Epoch: 20 April)

Event Time Altitude Azimuth Distance (km) Brightness Sun altitude
Exits shadow 04:13:02 14° 165° (SSE) 3,421 10.1 -32.4°
Maximum altitude 04:14:08 14° 157° (SSE) 3,262 10.1 -32.2°
Drops below altitude 10° 04:17:47 10° 128° (SE) 3,108 10.3 -31.6°
Sets 04:21:34 0° 102° (ESE) 3,622 11.1 -31.0°
